Regional Weather Roundup
Issued by NWS Newport/Morehead, NC

Current Version | Previous Version | Graphics & Text | Print | Product List | Glossary On
Versions: 1 2 3 4 5 6 7 8 9 10 11 12 13 14 15 16 17 18 19 20 21 22 23 24 25 26 27 28 29 30 31 32 33 34 35 36 37 38 39 40 41 42 43 44 45 46 47 48 49 50
000 ASUS42 KMHX 272313 RWRMHX WEATHER ROUNDUP FOR EASTERN NORTH CAROLINA NATIONAL WEATHER SERVICE NEWPORT/MOREHEAD CITY NC 700 PM EDT WED MAY 27 2015 NOTE: "FAIR" INDICATES FEW OR NO CLOUDS BELOW 12,000 FEET WITH NO SIGNIFICANT WEATHER AND/OR OBSTRUCTIONS TO VISIBILITY NCZ015>017-031-032-045>047-102-103-280000- NORTH COAST CITY SKY/WX TMP DP RH WIND PRES REMARKS EDENTON N/A 78 68 71 S17G23 30.19F ELIZABETH CITY SUNNY 78 66 66 S10 30.20S KITTY HAWK CLEAR 75 64 67 S7 30.21S MANTEO SUNNY 75 64 69 S17 30.22S $$ NCZ045>047-081-094-103-104-280000- CENTRAL COAST CITY SKY/WX TMP DP RH WIND PRES REMARKS FRISCO SUNNY 75 61 61 S14 30.24S SWANQUARTER N/A 75 N/A N/A S14G20 30.18S $$ NCZ095-097-098-100-101-280000- SOUTHERN COAST CITY SKY/WX TMP DP RH WIND PRES REMARKS BEAUFORT SUNNY 75 64 68 S12 30.23S CEDAR ISLAND N/A 77 N/A N/A S7G20 30.27S JACKSONVILLE PTSUNNY 76 66 71 S13 30.21F PINEY ISLAND CLEAR N/A N/A N/A S12G18 30.23S WILMINGTON MOSUNNY 77 67 71 S13 30.21F $$ NCZ011>013-027>030-043-044-078>080-089-090>093-098-280000- COASTAL PLAIN CITY SKY/WX TMP DP RH WIND PRES REMARKS AHOSKIE MOSUNNY 79 69 71 S8 30.16S CLINTON PTSUNNY 76 71 84 CALM 30.20S ELIZABETHTOWN LGT RAIN 77 69 76 S5 30.20S GOLDSBORO CLOUDY 79 68 68 S10 30.17R GREENVILLE MOSUNNY 81 70 69 S14 30.20R HAVELOCK PTSUNNY 76 65 68 S9 30.23S KENANSVILLE PTSUNNY 78 66 67 SE5 30.21R KINSTON MOSUNNY 79 68 69 S8G16 30.20S NEW BERN MOSUNNY 77 65 66 S12 30.22S RICHLANDS PTSUNNY 77 64 65 S9 30.22S ROCKY MOUNT PTSUNNY 80 70 71 SW22G33 30.18R WASHINGTON MOSUNNY 79 67 67 S14G20 30.20S WHITEVILLE PTSUNNY 78 65 65 S6 30.20S $$ AMZ130-135-150-152-154-156-158-170-250-252-270-ANZ085-086-088-633-658-670-280000- MARINE OBSERVATIONS STATION/POSITION TIME TEMP WIND PRES WAVE SWELL AIR SEA DIR/SP/G HT/PER HT/PER (UTC) (F) (DEG/KT/KT) (MB) (FT/S) (FT/S) CHESAPEAKE LIGHT 2200 69 170/ 27/ 29 1022.0 64 E VA BEACH 2150 68 64 190/ 12/ 14 1023.3 3/ 7 2/ 7 DUCK NOT AVBL 2 E DUCK NOT AVBL OREGON INLET NOT AVBL 13E OREGON INLT 2200 71 N/A 3/ 7 HATTERAS CG NOT AVBL DIAMOND BUOY 2150 75 77 160/ 16/ 17 1024.0 3/ 8 2/ 8 CAPE LOOKOUT 2200 74 160/ 13/ 15 1023.6 BEAUFORT LAB NOT AVBL 27 SE WRIGHTSVLE NOT AVBL 5 SE WRIGHTSVLE NOT AVBL 225 S CAPE HAT 2150 74 75 100/ 12/ 14 1024.2 4/ 8 3/ 8 41 SE CHARLESTON 2150 78 78 130/ 10/ 10 1022.4 3/ 7 2/ 7 $$

USA.gov is the U.S. government's official web portal to all federal, state and local government web resources and services.